• In Deutschland
  • Länderverzeichnis
  • Für 7 Tage
  • Wassertemperatur
  • Satellitenkarten
  • Wetterkarte
  • Widgets
  • user-avatar
    Anmelden

    Stündliche Wetter Ch'ŏngjin

    Heute, 22 Juli, Sonntag

    Zeit Temperatur Niederschläge Wind Luftdruck Luftfeuchtigkeit
    00:00 +28°C° 0 mm 1 m/S 755 mmHg 69%
    01:00 +28°C° 0 mm 1 m/S 755 mmHg 67%
    02:00 +27°C° 0 mm 1 m/S 755 mmHg 65%
    03:00 +27°C° 0 mm 2 m/S 755 mmHg 63%
    04:00 +27°C° 0 mm 2 m/S 755 mmHg 63%
    05:00 +26°C° 0 mm 1 m/S 755 mmHg 63%
    06:00 +26°C° 0 mm 1 m/S 755 mmHg 63%
    07:00 +29°C° 0 mm 1 m/S 755 mmHg 57%
    08:00 +32°C° 0 mm 1 m/S 755 mmHg 51%
    09:00 +35°C° 0 mm 1 m/S 755 mmHg 45%
    10:00 +37°C° 0 mm 1 m/S 755 mmHg 42%
    11:00 +39°C° 0 mm 1 m/S 755 mmHg 39%
    12:00 +40°C° 0 mm 2 m/S 755 mmHg 36%
    13:00 +40°C° 0 mm 2 m/S 754 mmHg 38%
    14:00 +40°C° 0 mm 2 m/S 754 mmHg 39%
    15:00 +40°C° 0 mm 2 m/S 754 mmHg 41%
    16:00 +39°C° 0 mm 2 m/S 754 mmHg 48%
    17:00 +38°C° 0 mm 2 m/S 754 mmHg 56%
    18:00 +37°C° 0 mm 2 m/S 754 mmHg 63%
    19:00 +34°C° 0 mm 1 m/S 754 mmHg 69%
    20:00 +32°C° 0 mm 1 m/S 755 mmHg 75%
    21:00 +30°C° 0 mm 1 m/S 755 mmHg 81%
    22:00 +30°C° 0 mm 1 m/S 755 mmHg 81%
    23:00 +30°C° 0 mm 1 m/S 755 mmHg 82%

    Morgen, 23 Juli, Montag

    Zeit Temperatur Niederschläge Wind Luftdruck Luftfeuchtigkeit
    00:00 +29°C° 0 mm 1 m/S 755 mmHg 82%
    01:00 +29°C° 0 mm 1 m/S 755 mmHg 83%
    02:00 +29°C° 0 mm 1 m/S 755 mmHg 85%
    03:00 +29°C° 0 mm 2 m/S 755 mmHg 86%
    04:00 +29°C° 0 mm 2 m/S 755 mmHg 87%
    05:00 +28°C° 0 mm 2 m/S 756 mmHg 87%
    06:00 +28°C° 0 mm 2 m/S 756 mmHg 87%
    07:00 +31°C° 0 mm 2 m/S 756 mmHg 79%
    08:00 +34°C° 0 mm 2 m/S 756 mmHg 72%
    09:00 +36°C° 0 mm 2 m/S 756 mmHg 64%
    10:00 +37°C° 0 mm 2 m/S 756 mmHg 60%
    11:00 +39°C° 0 mm 2 m/S 756 mmHg 56%
    12:00 +40°C° 0 mm 2 m/S 755 mmHg 52%
    13:00 +40°C° 0 mm 2 m/S 755 mmHg 53%
    14:00 +40°C° 0 mm 2 m/S 755 mmHg 53%
    15:00 +39°C° 0 mm 2 m/S 755 mmHg 54%
    16:00 +38°C° 0 mm 2 m/S 754 mmHg 61%
    17:00 +37°C° 0 mm 2 m/S 754 mmHg 68%
    18:00 +34°C° 0 mm 1 m/S 754 mmHg 76%
    19:00 +33°C° 0 mm 1 m/S 755 mmHg 81%
    20:00 +31°C° 0 mm 1 m/S 755 mmHg 87%
    21:00 +27°C° 0 mm 0 m/S 755 mmHg 92%
    22:00 +29°C° 0 mm 1 m/S 756 mmHg 92%
    23:00 +29°C° 0 mm 1 m/S 756 mmHg 91%

    übermorgen, 24 Juli, Dienstag

    Zeit Temperatur Niederschläge Wind Luftdruck Luftfeuchtigkeit
    00:00 +29°C° 0 mm 1 m/S 756 mmHg 91%
    01:00 +29°C° 0 mm 1 m/S 756 mmHg 91%
    02:00 +29°C° 0 mm 1 m/S 756 mmHg 91%
    03:00 +28°C° 0 mm 1 m/S 755 mmHg 91%
    04:00 +28°C° 0 mm 1 m/S 755 mmHg 90%
    05:00 +28°C° 0 mm 1 m/S 755 mmHg 90%
    06:00 +28°C° 0 mm 1 m/S 756 mmHg 89%
    07:00 +31°C° 0 mm 1 m/S 756 mmHg 80%
    08:00 +33°C° 0 mm 1 m/S 756 mmHg 70%
    09:00 +36°C° 0 mm 1 m/S 756 mmHg 61%
    10:00 +37°C° 0 mm 1 m/S 755 mmHg 57%
    11:00 +39°C° 0 mm 2 m/S 755 mmHg 52%
    12:00 +41°C° 0 mm 2 m/S 755 mmHg 48%
    13:00 +40°C° 0 mm 2 m/S 755 mmHg 49%
    14:00 +40°C° 0 mm 3 m/S 754 mmHg 51%
    15:00 +39°C° 0 mm 3 m/S 754 mmHg 52%
    16:00 +38°C° 0,2 mm 2 m/S 754 mmHg 60%
    17:00 +37°C° 0,2 mm 2 m/S 754 mmHg 67%
    18:00 +35°C° 0,2 mm 2 m/S 754 mmHg 74%
    19:00 +34°C° 0,2 mm 2 m/S 754 mmHg 79%
    20:00 +31°C° 0,2 mm 1 m/S 754 mmHg 83%
    21:00 +29°C° 0,2 mm 1 m/S 755 mmHg 87%
    22:00 +29°C° 0,1 mm 1 m/S 755 mmHg 87%
    23:00 +29°C° 0,1 mm 1 m/S 755 mmHg 86%

    25 Juli, Mittwoch

    Zeit Temperatur Niederschläge Wind Luftdruck Luftfeuchtigkeit
    00:00 +29°C° 0,1 mm 1 m/S 755 mmHg 85%
    01:00 +29°C° 0,1 mm 1 m/S 755 mmHg 86%
    02:00 +28°C° 0,1 mm 1 m/S 754 mmHg 87%
    03:00 +28°C° 0,1 mm 1 m/S 754 mmHg 88%
    04:00 +28°C° 0 mm 1 m/S 754 mmHg 88%
    05:00 +28°C° 0 mm 1 m/S 754 mmHg 88%
    06:00 +28°C° 0 mm 1 m/S 754 mmHg 88%
    07:00 +30°C° 0 mm 1 m/S 754 mmHg 80%
    08:00 +32°C° 0 mm 1 m/S 754 mmHg 72%
    09:00 +36°C° 0 mm 2 m/S 754 mmHg 65%
    10:00 +37°C° 0 mm 2 m/S 753 mmHg 62%
    11:00 +38°C° 0 mm 3 m/S 753 mmHg 59%
    12:00 +39°C° 0 mm 3 m/S 753 mmHg 56%
    13:00 +38°C° 0,3 mm 3 m/S 752 mmHg 59%
    14:00 +38°C° 0,3 mm 3 m/S 752 mmHg 63%
    15:00 +38°C° 0,3 mm 4 m/S 752 mmHg 66%
    16:00 +37°C° 0,1 mm 3 m/S 752 mmHg 69%
    17:00 +36°C° 0,1 mm 3 m/S 752 mmHg 72%
    18:00 +35°C° 0,1 mm 3 m/S 752 mmHg 76%
    19:00 +34°C° 0,1 mm 3 m/S 752 mmHg 80%
    20:00 +31°C° 0,1 mm 2 m/S 752 mmHg 85%
    21:00 +29°C° 0,1 mm 2 m/S 753 mmHg 90%
    22:00 +29°C° 0,1 mm 2 m/S 753 mmHg 89%
    23:00 +29°C° 0,1 mm 2 m/S 753 mmHg 88%

    26 Juli, Donnerstag

    Zeit Temperatur Niederschläge Wind Luftdruck Luftfeuchtigkeit
    00:00 +28°C° 0,1 mm 2 m/S 753 mmHg 87%
    01:00 +28°C° 0 mm 2 m/S 753 mmHg 87%
    02:00 +28°C° 0 mm 2 m/S 753 mmHg 87%
    03:00 +28°C° 0 mm 2 m/S 752 mmHg 86%
    04:00 +28°C° 0 mm 2 m/S 753 mmHg 86%
    05:00 +28°C° 0 mm 2 m/S 753 mmHg 86%
    06:00 +28°C° 0 mm 2 m/S 753 mmHg 86%
    07:00 +30°C° 0 mm 2 m/S 753 mmHg 78%
    08:00 +32°C° 0 mm 2 m/S 753 mmHg 71%
    09:00 +36°C° 0 mm 2 m/S 753 mmHg 63%
    10:00 +36°C° 0,2 mm 2 m/S 753 mmHg 65%
    11:00 +36°C° 0,2 mm 2 m/S 753 mmHg 67%
    12:00 +37°C° 0,2 mm 3 m/S 753 mmHg 68%
    13:00 +36°C° 0,7 mm 2 m/S 752 mmHg 72%
    14:00 +36°C° 0,7 mm 2 m/S 752 mmHg 75%
    15:00 +36°C° 0,7 mm 2 m/S 752 mmHg 78%
    16:00 +35°C° 1,2 mm 2 m/S 752 mmHg 82%
    17:00 +34°C° 1,2 mm 1 m/S 752 mmHg 85%
    18:00 +33°C° 1,2 mm 1 m/S 752 mmHg 89%
    19:00 +31°C° 0,4 mm 1 m/S 752 mmHg 90%
    20:00 +30°C° 0,4 mm 1 m/S 753 mmHg 92%
    21:00 +29°C° 0,4 mm 1 m/S 753 mmHg 93%
    22:00 +28°C° 0,1 mm 1 m/S 753 mmHg 93%
    23:00 +28°C° 0,1 mm 1 m/S 753 mmHg 93%

    27 Juli, Freitag

    Zeit Temperatur Niederschläge Wind Luftdruck Luftfeuchtigkeit
    00:00 +27°C° 0,1 mm 1 m/S 753 mmHg 93%
    01:00 +27°C° 0 mm 1 m/S 753 mmHg 93%
    02:00 +27°C° 0 mm 1 m/S 753 mmHg 92%
    03:00 +26°C° 0 mm 1 m/S 753 mmHg 92%
    04:00 +26°C° 0 mm 1 m/S 753 mmHg 91%
    05:00 +26°C° 0 mm 1 m/S 753 mmHg 90%
    06:00 +26°C° 0 mm 1 m/S 754 mmHg 90%
    07:00 +29°C° 0 mm 1 m/S 754 mmHg 81%
    08:00 +31°C° 0 mm 1 m/S 754 mmHg 72%
    09:00 +33°C° 0 mm 1 m/S 754 mmHg 63%
    10:00 +35°C° 0 mm 2 m/S 753 mmHg 59%
    11:00 +36°C° 0 mm 3 m/S 753 mmHg 55%
    12:00 +37°C° 0 mm 4 m/S 753 mmHg 52%
    13:00 +37°C° 0 mm 4 m/S 753 mmHg 54%
    14:00 +36°C° 0 mm 4 m/S 752 mmHg 56%
    15:00 +36°C° 0 mm 4 m/S 752 mmHg 59%
    16:00 +35°C° 0,1 mm 3 m/S 752 mmHg 65%
    17:00 +34°C° 0,1 mm 3 m/S 752 mmHg 72%
    18:00 +33°C° 0,1 mm 3 m/S 752 mmHg 78%
    19:00 +31°C° 0,1 mm 2 m/S 753 mmHg 82%
    20:00 +29°C° 0,1 mm 2 m/S 753 mmHg 87%
    21:00 +27°C° 0,1 mm 1 m/S 754 mmHg 91%
    22:00 +27°C° 0,1 mm 2 m/S 754 mmHg 91%
    23:00 +26°C° 0,1 mm 2 m/S 754 mmHg 92%
    Mehr zeigen